Home   Weather   Kempten   Past weeks

Flag for Germany Past Weather in Kempten, Bavaria, Germany — Yesterday and Last 2 Weeks

Now
34 °F

Fog.


Feels Like: 34 °F
Forecast: 33 / 36 °F
Wind: 2 mph from Southwest

Location: Altenstadt Airport

Current Time: Apr 27, 2017 at 9:44:29 am

Latest Report: Apr 27, 2017 at 8:45 am


Visibility: 3 mi

Pressure: 29.89 "Hg (27.48 "Hg at 673m altitude)

Humidity: 93%

Dew Point: 32 °F

Location of KemptenLocation

Past Weather in Kempten — Graph

°F

Kempten Temperature Yesterday

Maximum temperature yesterday: 39 °F (at 12:20 am)
Minimum temperature yesterday: 32 °F (at 9:20 pm)
Average temperature yesterday: 35 °F

High & Low Weather Summary for the Past Weeks

 TemperatureHumidityPressure
High61 °F (Apr 12, 3:20 pm)100% (Apr 16, 9:20 pm)30.48 "Hg (Apr 16, 9:20 pm)
Low21 °F (Apr 21, 6:20 am)27% (Apr 24, 4:20 pm)29.71 "Hg (Apr 26, 12:20 am)
Average39 °F78%30.08 "Hg
* Reported Apr 12 8:20 am — Apr 27 8:20 am, Kempten, Weather by CustomWeather, © 2017

Note: Actual official high and low records may vary slightly from our data, if they occured in-between our weather recording intervals... More about our weather records

Advertising

Kempten Weather History for the Previous 24 Hours

Scroll right to see more
 ConditionsComfort  
Time TempWeatherWind HumidityBarometerVisibility
8:20 am
Thu, Apr 27
34 °FFog.1 mph93%29.89 "Hg2 mi
7:50 am34 °FLight rain. Fog.1 mph93%29.86 "Hg2 mi
7:34 am34 °FLight rain. Mostly cloudy.1 mph93%29.86 "Hg4 mi
6:20 am32 °FLight snow. Partly sunny.2 mph100%29.86 "Hg4 mi
5:20 am32 °FLight snow. Passing clouds.3 mph100%29.86 "Hg3 mi
4:20 am32 °FChilly.2 mph100%29.83 "HgN/A
3:20 am32 °FChilly.1 mph100%29.83 "HgN/A
2:20 am32 °FChilly.2 mph100%29.83 "HgN/A
1:20 am32 °FChilly.1 mph100%29.83 "HgN/A
12:20 am32 °FChilly.2 mph100%29.83 "HgN/A
11:20 pm
Wed, Apr 26
32 °FChilly.No wind100%29.86 "HgN/A
10:20 pm32 °FChilly.No wind100%29.86 "HgN/A
9:20 pm32 °FChilly.1 mph100%29.86 "HgN/A
8:20 pm34 °FSnow. Fog.2 mph93%29.83 "Hg1 mi
7:20 pm34 °FLight snow. Fog.2 mph93%29.83 "Hg2 mi
6:35 pm34 °FSnow. Fog.1 mph93%29.83 "Hg1 mi
5:48 pm34 °FSnow. Fog.2 mph93%29.83 "Hg1 mi
5:20 pm34 °FLight snow. Partly sunny.2 mph93%29.83 "Hg4 mi
4:48 pm34 °FSnow. Fog.5 mph93%29.83 "Hg2 mi
4:20 pm34 °FLight snow. Partly sunny.5 mph93%29.80 "Hg4 mi
4:04 pm34 °FLight snow. Fog.2 mph93%29.80 "Hg3 mi
3:20 pm34 °FSnow. Fog.3 mph93%29.80 "Hg1 mi
2:33 pm34 °FSnow. Fog.5 mph93%29.80 "Hg1 mi
1:20 pm34 °FSnow. Fog.8 mph93%29.77 "Hg2 mi
12:20 pm34 °FSnow. Fog.6 mph93%29.77 "Hg2 mi
11:25 am36 °FLight rain. Fog.5 mph93%29.74 "Hg3 mi
10:50 am36 °FLight rain. Partly sunny.5 mph93%29.74 "Hg4 mi
10:20 am36 °FLight rain. Fog.5 mph93%29.74 "Hg3 mi
9:45 am34 °FDrizzle. Partly sunny.5 mph100%29.74 "Hg4 mi
9:20 am34 °FDrizzle. Partly sunny.5 mph93%29.74 "Hg5 mi
Weather by CustomWeather, © 2017

See weather overviewHow to use our weather pages